Simultaneous Nadir Overpasses (SNOs) Predictions

Prediction of SNOs between GOES-14 and AQUA Satellite Orbit:

Table of predicted SNOs for the next 14.0 days since TLE Epoch: 12/13/2019
Index Date Time (GOES-14) GOES-14 Lat,Lon AQUA Lat,Lon Distance(km) Time Diff (sec)
1 12/14/2019 20:26:27 -0.01,-104.04 0.31,-102.47 178.25 80
2 12/15/2019 08:47:44 -0.00,-104.29 0.73,-107.64 382.20 80
3 12/17/2019 08:35:33 0.00,-104.28 0.10,-104.69 46.48 80
4 12/19/2019 08:20:42 0.00,-104.28 -0.52,-101.73 289.46 80
5 12/19/2019 20:42:06 0.01,-104.03 -0.59,-106.92 328.40 80
6 12/21/2019 20:32:35 0.01,-104.03 0.04,-103.96 8.13 80
7 12/23/2019 20:20:24 0.00,-104.03 0.67,-101.01 344.58 80
8 12/24/2019 08:41:40 -0.01,-104.29 0.41,-106.17 213.70 80
9 12/26/2019 08:26:49 -0.00,-104.29 -0.23,-103.21 122.57 80
10 12/26/2019 20:48:12 0.01,-104.02 -0.89,-108.40 497.14 80




NCC Satellite Simultaneous Nadir Overpasses (SNOs) Prediction Service
